Regional Weather Roundup
Issued by NWS

Home | Current Version | Previous Version | Graphics & Text | Print | Product List | Glossary Off
Versions: 1 2 3 4 5 6 7 8 9 10 11 12 13 14 15 16 17 18 19 20 21 22 23 24 25 26 27 28 29 30 31 32 33 34 35 36 37 38 39 40 41 42 43 44 45 46 47 48 49 50

000
ASUS43 KMKX 171000
RWRWI

WISCONSIN REGIONAL WEATHER ROUNDUP
NATIONAL WEATHER SERVICE MILWAUKEE/SULLIVAN WI
500 AM CDT WED SEP 17 2014

NOTE: "FAIR" INDICATES FEW OR NO CLOUDS BELOW 12,000 FEET WITH NO
SIGNIFICANT WEATHER AND/OR OBSTRUCTIONS TO VISIBILITY.

WIZ001-002-006>008-014>016-023>028-171100-
NORTHWEST WISCONSIN

CITY           SKY/WX    TMP DP  RH WIND       PRES   REMARKS
SUPERIOR ARPT  CLEAR     39  39  99 SW6       29.94F WCI  35
ASHLAND        CLEAR     42  40  92 CALM      29.94F
HAYWARD        CLEAR     37  35  92 CALM      29.96F
SIREN          MOCLDY    46  45  95 CALM      29.95F
RICE LAKE      MOCLDY    40  39  99 CALM      29.99S FOG
LADYSMITH      CLEAR     39  38  96 CALM      29.99F
EAU CLAIRE     MOCLDY    43  42  97 CALM      29.97F
MENOMONIE      CLOUDY    46  45  97 SE6       29.98F
NEW RICHMOND   CLOUDY    51  46  82 CALM      29.97S
OSCEOLA        CLOUDY    52  49  90 S5        29.98F
$$

WIZ003>005-009-010-017-018-171100-
NORTH CENTRAL WISCONSIN

CITY           SKY/WX    TMP DP  RH WIND       PRES   REMARKS
WOODRUFF       PTCLDY    43  40  91 CALM      29.96F
RHINELANDER    CLEAR     44  41  89 SW7       29.98F
EAGLE RIVER    CLEAR     42  40  95 SW6       29.95F
LAND O LAKES   CLEAR     42  41  98 CALM      29.97S
PHILLIPS       CLEAR     39  38  95 S3        29.97F
TOMAHAWK       CLEAR     34  33  96 CALM      29.99F
MEDFORD        CLEAR     41  39  93 S3        29.98F
MERRILL        MOCLDY    34  34 100 CALM      29.99F
$$

WIZ029-030-035-036-043>047-171100-
CENTRAL WISCONSIN

CITY           SKY/WX    TMP DP  RH WIND       PRES   REMARKS
WAUSAU         CLEAR     41  40  96 E5        29.99F
MOSINEE        CLEAR     39  39 100 S3        30.01S
MARSHFIELD     CLEAR     43  40  89 CALM      29.99F
STEVENS POINT  CLEAR     36  34  92 CALM      30.01F
WAUPACA        CLEAR     42  40  95 CALM      30.01F
WAUTOMA        NOT AVBL
WISC RAPIDS    CLEAR     39  38  96 CALM      30.02F
CAMP DOUGLAS   NOT AVBL
$$

WIZ011>013-019>022-031-037>040-048>050-171100-
NORTHEAST WISCONSIN

CITY           SKY/WX    TMP DP  RH WIND       PRES   REMARKS
ANTIGO         CLEAR     38  37  99 CALM      30.00F
STURGEON BAY   CLEAR     50  45  81 SW6       30.00S
GREEN BAY      CLEAR     43  41  93 CALM      30.01S
MANITOWOC      NOT AVBL
APPLETON       NOT AVBL
CLINTONVILLE   CLEAR     39  37  93 CALM      30.01S
OSHKOSH        CLEAR     46  43  89 SW5       30.01F
$$

WIZ032>034-041-042-053>061-171100-
SOUTHWEST WISCONSIN

CITY           SKY/WX    TMP DP  RH WIND       PRES   REMARKS
LA CROSSE      CLOUDY    49  46  90 SE6       30.00F FOG
SPARTA         CLOUDY    36  36 100 CALM      30.03S FOG
VIROQUA        FAIR      46  46  97 S3        30.02S
BOSCOBEL       FOG       46  45  96 CALM      30.04S VSB 1/4
PRAIRIE DU CHI FOG       44  42  95 CALM      30.03F VSB 1/4
PLATTEVILLE    FAIR      47  43  87 CALM      30.04S
$$

WIZ056-057-062-063-064-067-068-171100-
SOUTH CENTRAL WISCONSIN

CITY           SKY/WX    TMP DP  RH WIND       PRES   REMARKS
BARABOO/DELLS  CLEAR     42  40  94 CALM      30.02S
LONE ROCK      HAZE      45  40  82 CALM      30.04S VSB 1/4
WATERTOWN      CLEAR     39  39 100 CALM      30.03S
MADISON        FOG       40  39  97 CALM      30.03S VSB 1
MIDDLETON      FAIR      40  40 100 CALM      30.03F
MONROE         CLEAR     46  43  87 SW7       30.03F
JANESVILLE     CLEAR     41  37  87 CALM      30.04S
$$

WIZ051-052-058>065-066-070>072-171100-
SOUTHEAST WISCONSIN

CITY           SKY/WX    TMP DP  RH WIND       PRES   REMARKS
MILWAUKEE      CLEAR     49  43  80 CALM      30.04S
WAUKESHA         N/A     41  39  93 CALM      30.04F FOG
MILWAUKEE/TIMM CLEAR     41  39  93 CALM      30.04F
RACINE         CLEAR     50  46  86 SW6       30.05F
BURLINGTON     FOG       36  36 100 CALM      30.04F VSB 3/4
KENOSHA        FOG       42  42 100 CALM      30.04F VSB 1/4
FOND DU LAC    CLEAR     42  39  89 S5        30.03S
SHEBOYGAN      CLEAR     42  40  92 CALM      30.02F
WEST BEND      CLEAR     37  37 100 CALM      30.03F
JUNEAU         CLEAR     41  40  97 CALM      30.04S
$$

LSZ147-162-171100-
LAKE SUPERIOR

STATION/POSITION TIME  TEMP    WIND        PRES    WAVE
                       AIR SEA DIR/SP/G            HT/PER
                 (UTC) (F)     (DEG/KT/KT) (MB)    (FT/S)
W MID LAKE BUOY  0850   47 47  290/  2/  6 1012.8F   2/ 4
DEVILS ISLAND    0900   49     340/  6/  7 1013.6F
PORT WING        0940   47     150/  4/  6 1013.5F
SAXON HARBOR     0900   52     190/  4/  7 1014.2S
$$

LMZ867-665-643>646-171100-
LAKE MICHIGAN

STATION/POSITION TIME  TEMP    WIND        PRES    WAVE
                       AIR SEA DIR/SP/G            HT/PER
                 (UTC) (F)     (DEG/KT/KT) (MB)    (FT/S)
N MID LAKE BUOY  0850   57 57  260/ 10/ 12 1014.8F   2/ 5
NORTHPORT PIER   0900   54     220/  2/  5 1014.9F
KEWAUNEE LAKESHO 0900   48     300/  6/  7 1015.2F
SHEBOYGAN LAKESH 0900   49 50  230/  6/  7 1017.2F
PORT WASHINGTON  0900   49     270/  5/  6 1017.6F
ATWATER BUOY     0900   55     220/  8/ 10 1018.0F
MILWAUKEE LAKESH 0900   53     230/  6/  8   N/A
S MID LAKE BUOY  0850   61 64  220/  8/ 10 1017.7F   0
KENOSHA   LAKESH 0900   52     250/  7/  9 1017.3F
$$

TC  - TEMPERATURE IN CELSIUS
VSB - VISIBILITY IN STATUTE MILES
WCI - WIND CHILL INDEX
HX  - HEAT INDEX




USA.gov is the U.S. government's official web portal to all federal, state and local government web resources and services.